Location: Unspecified
(40.5530°N, 74.2920°W)
Time: 07:04:39
(UTC+00:00)

Daily predictions for brighter satellites

Satellite Brightness Start Highest point End
(mag) Time Altitude Azimuth Time Altitude Azimuth Time Altitude Azimuth
Cosmos 2082 Rocket 2.2 23:11:33 10° S 23:17:08 66° ESE 23:22:45 10° NNE
CZ-4C R/B 4.3 23:19:48 10° NW 23:26:45 43° WSW 23:34:18 10° S
Cosmos 1833 Rocket 2.8 23:23:44 10° SSW 23:29:21 83° WNW 23:35:01 10° NNE
Cosmos 1707 3.7 23:28:13 10° NNE 23:31:28 26° ENE 23:34:42 10° SE
Envisat 3.3 23:28:59 10° SE 23:33:49 47° ENE 23:38:40 10° N
Cosmos 1980 Rocket 2.6 23:30:32 10° NNW 23:35:57 45° ENE 23:41:17 10° SE
Cosmos 2278 3.8 23:30:31 10° NNW 23:36:15 86° WSW 23:41:55 10° SSE
Cosmos 1842 4.0 23:34:30 10° NNW 23:38:19 57° W 23:42:07 10° S
Lacrosse 5 4.3 23:38:59 10° NW 23:41:45 15° NNW 23:44:32 10° NNE
Abrixas rocket 3.6 23:42:20 10° W 23:45:14 32° NNW 23:48:06 10° NE
YAOGAN 6 3.5 23:43:54 10° SE 23:47:03 29° ENE 23:50:11 10° N
Cosmos 2369 4.4 23:41:29 10° NNW 23:47:07 59° WSW 23:52:41 10° S
TIMED 4.4 23:44:28 10° NNW 23:48:51 80° ENE 23:53:13 10° SSE
COSMOS 2455 4.0 23:45:56 10° SSE 23:50:00 19° ESE 23:54:04 10° ENE
SPOT 3 Rocket 3.5 23:46:18 10° SSE 23:51:24 69° ENE 23:56:32 10° N
GENESIS II 4.2 23:48:34 10° SSW 23:52:27 87° WNW 23:56:24 10° NNE
Cosmos 1626 Rocket 3.8 23:48:11 10° N 23:52:31 49° E 23:56:46 10° SSE
Cosmos 1544 Rocket 3.9 23:48:23 10° SSW 23:52:42 70° W 23:57:05 10° N
CZ-2D R/B 3.4 23:50:57 10° SSE 23:54:42 51° ENE 23:58:30 10° N
